• In Belgien
  • Länderverzeichnis
  • Für 7 Tage
  • Wassertemperatur
  • Satellitenkarten
  • Wetterkarte
  • Widgets
  • user-avatar
    Anmelden

    Stündliche Wetter Indianapolis

    Heute, 20 September, Donnerstag

    Zeit Temperatur Niederschläge Wind Luftdruck Luftfeuchtigkeit
    00:00 +24°C° 0 mm 1 m/S 742 mmHg 88%
    01:00 +24°C° 0 mm 2 m/S 742 mmHg 89%
    02:00 +24°C° 0 mm 2 m/S 742 mmHg 90%
    03:00 +24°C° 0 mm 2 m/S 742 mmHg 91%
    04:00 +24°C° 0 mm 2 m/S 742 mmHg 92%
    05:00 +24°C° 0 mm 2 m/S 742 mmHg 92%
    06:00 +24°C° 0 mm 2 m/S 742 mmHg 92%
    07:00 +26°C° 0.1 mm 2 m/S 742 mmHg 87%
    08:00 +27°C° 0.1 mm 3 m/S 743 mmHg 83%
    09:00 +29°C° 0.1 mm 3 m/S 743 mmHg 78%
    10:00 +30°C° 1.6 mm 3 m/S 743 mmHg 76%
    11:00 +32°C° 1.6 mm 4 m/S 743 mmHg 73%
    12:00 +32°C° 1.6 mm 4 m/S 743 mmHg 71%
    13:00 +32°C° 1.7 mm 4 m/S 742 mmHg 72%
    14:00 +31°C° 1.7 mm 3 m/S 742 mmHg 73%
    15:00 +31°C° 1.7 mm 3 m/S 742 mmHg 73%
    16:00 +30°C° 0 mm 3 m/S 742 mmHg 78%
    17:00 +28°C° 0 mm 3 m/S 741 mmHg 82%
    18:00 +27°C° 0 mm 3 m/S 741 mmHg 87%
    19:00 +27°C° 0 mm 3 m/S 741 mmHg 87%
    20:00 +26°C° 0 mm 3 m/S 741 mmHg 88%
    21:00 +26°C° 0 mm 4 m/S 741 mmHg 88%
    22:00 +26°C° 0 mm 4 m/S 741 mmHg 87%
    23:00 +25°C° 0 mm 4 m/S 741 mmHg 86%

    Morgen, 21 September, Freitag

    Zeit Temperatur Niederschläge Wind Luftdruck Luftfeuchtigkeit
    00:00 +25°C° 0 mm 5 m/S 741 mmHg 85%
    01:00 +25°C° 0 mm 5 m/S 741 mmHg 84%
    02:00 +25°C° 0 mm 4 m/S 741 mmHg 84%
    03:00 +25°C° 0 mm 4 m/S 741 mmHg 83%
    04:00 +23°C° 0.1 mm 5 m/S 741 mmHg 84%
    05:00 +23°C° 0.1 mm 5 m/S 741 mmHg 85%
    06:00 +23°C° 0.1 mm 5 m/S 741 mmHg 86%
    07:00 +24°C° 0.1 mm 6 m/S 741 mmHg 83%
    08:00 +26°C° 0.1 mm 6 m/S 741 mmHg 80%
    09:00 +28°C° 0.1 mm 7 m/S 741 mmHg 76%
    10:00 +28°C° 0 mm 7 m/S 741 mmHg 74%
    11:00 +29°C° 0 mm 7 m/S 741 mmHg 72%
    12:00 +30°C° 0 mm 7 m/S 741 mmHg 70%
    13:00 +29°C° 0.3 mm 6 m/S 741 mmHg 73%
    14:00 +28°C° 0.3 mm 5 m/S 741 mmHg 76%
    15:00 +27°C° 0.3 mm 4 m/S 741 mmHg 79%
    16:00 +26°C° 0 mm 4 m/S 742 mmHg 78%
    17:00 +25°C° 0 mm 4 m/S 743 mmHg 78%
    18:00 +22°C° 0 mm 4 m/S 743 mmHg 77%
    19:00 +21°C° 0 mm 4 m/S 744 mmHg 76%
    20:00 +19°C° 0 mm 4 m/S 745 mmHg 76%
    21:00 +18°C° 0 mm 4 m/S 745 mmHg 75%
    22:00 +17°C° 0 mm 4 m/S 745 mmHg 74%
    23:00 +17°C° 0 mm 4 m/S 746 mmHg 73%

    übermorgen, 22 September, Samstag

    Zeit Temperatur Niederschläge Wind Luftdruck Luftfeuchtigkeit
    00:00 +15°C° 0 mm 4 m/S 746 mmHg 71%
    01:00 +15°C° 0 mm 4 m/S 746 mmHg 72%
    02:00 +16°C° 0 mm 3 m/S 746 mmHg 72%
    03:00 +14°C° 0 mm 3 m/S 746 mmHg 72%
    04:00 +14°C° 0 mm 3 m/S 746 mmHg 73%
    05:00 +14°C° 0 mm 3 m/S 747 mmHg 75%
    06:00 +14°C° 0 mm 3 m/S 747 mmHg 76%
    07:00 +14°C° 0 mm 3 m/S 747 mmHg 76%
    08:00 +14°C° 0 mm 3 m/S 748 mmHg 77%
    09:00 +14°C° 0 mm 4 m/S 748 mmHg 78%
    10:00 +16°C° 0 mm 3 m/S 748 mmHg 77%
    11:00 +17°C° 0 mm 3 m/S 747 mmHg 76%
    12:00 +17°C° 0 mm 3 m/S 747 mmHg 75%
    13:00 +18°C° 0 mm 3 m/S 746 mmHg 75%
    14:00 +18°C° 0 mm 3 m/S 746 mmHg 75%
    15:00 +18°C° 0 mm 2 m/S 745 mmHg 75%
    16:00 +17°C° 0 mm 2 m/S 745 mmHg 80%
    17:00 +16°C° 0 mm 2 m/S 745 mmHg 84%
    18:00 +15°C° 0 mm 2 m/S 745 mmHg 88%
    19:00 +15°C° 0 mm 2 m/S 746 mmHg 90%
    20:00 +14°C° 0 mm 2 m/S 746 mmHg 92%
    21:00 +14°C° 0 mm 2 m/S 746 mmHg 94%
    22:00 +13°C° 0 mm 2 m/S 746 mmHg 95%
    23:00 +13°C° 0 mm 2 m/S 746 mmHg 95%

    23 September, Sonntag

    Zeit Temperatur Niederschläge Wind Luftdruck Luftfeuchtigkeit
    00:00 +13°C° 0 mm 2 m/S 746 mmHg 96%
    01:00 +13°C° 0 mm 2 m/S 746 mmHg 96%
    02:00 +12°C° 0 mm 2 m/S 746 mmHg 96%
    03:00 +11°C° 0 mm 3 m/S 746 mmHg 96%
    04:00 +11°C° 0 mm 3 m/S 746 mmHg 96%
    05:00 +11°C° 0 mm 3 m/S 746 mmHg 96%
    06:00 +11°C° 0 mm 3 m/S 746 mmHg 96%
    07:00 +13°C° 0 mm 3 m/S 746 mmHg 90%
    08:00 +15°C° 0 mm 4 m/S 747 mmHg 84%
    09:00 +18°C° 0 mm 4 m/S 747 mmHg 77%
    10:00 +19°C° 0 mm 4 m/S 747 mmHg 74%
    11:00 +20°C° 0 mm 4 m/S 746 mmHg 70%
    12:00 +22°C° 0 mm 4 m/S 746 mmHg 67%
    13:00 +22°C° 0 mm 4 m/S 746 mmHg 67%
    14:00 +22°C° 0 mm 4 m/S 745 mmHg 66%
    15:00 +24°C° 0 mm 3 m/S 745 mmHg 66%
    16:00 +21°C° 0 mm 3 m/S 745 mmHg 72%
    17:00 +19°C° 0 mm 3 m/S 745 mmHg 78%
    18:00 +18°C° 0 mm 3 m/S 745 mmHg 84%
    19:00 +17°C° 0 mm 3 m/S 745 mmHg 86%
    20:00 +16°C° 0 mm 3 m/S 745 mmHg 88%
    21:00 +16°C° 0 mm 3 m/S 746 mmHg 90%
    22:00 +16°C° 0 mm 3 m/S 746 mmHg 89%
    23:00 +16°C° 0 mm 3 m/S 745 mmHg 89%

    24 September, Montag

    Zeit Temperatur Niederschläge Wind Luftdruck Luftfeuchtigkeit
    00:00 +16°C° 0 mm 3 m/S 745 mmHg 89%
    01:00 +16°C° 0 mm 3 m/S 745 mmHg 90%
    02:00 +16°C° 0 mm 3 m/S 745 mmHg 90%
    03:00 +16°C° 0 mm 3 m/S 745 mmHg 91%
    04:00 +16°C° 0 mm 3 m/S 745 mmHg 92%
    05:00 +16°C° 0 mm 3 m/S 745 mmHg 93%
    06:00 +16°C° 0 mm 2 m/S 745 mmHg 94%
    07:00 +18°C° 0 mm 3 m/S 745 mmHg 91%
    08:00 +20°C° 0 mm 3 m/S 745 mmHg 87%
    09:00 +22°C° 0 mm 3 m/S 745 mmHg 83%
    10:00 +24°C° 0 mm 3 m/S 745 mmHg 81%
    11:00 +25°C° 0 mm 3 m/S 745 mmHg 79%
    12:00 +26°C° 0 mm 3 m/S 745 mmHg 78%
    13:00 +26°C° 0.1 mm 3 m/S 744 mmHg 77%
    14:00 +27°C° 0.1 mm 3 m/S 744 mmHg 77%
    15:00 +27°C° 0.1 mm 3 m/S 743 mmHg 76%
    16:00 +26°C° 0.4 mm 3 m/S 743 mmHg 82%
    17:00 +24°C° 0.4 mm 3 m/S 743 mmHg 87%
    18:00 +22°C° 0.4 mm 3 m/S 743 mmHg 92%
    19:00 +22°C° 0 mm 3 m/S 743 mmHg 93%
    20:00 +22°C° 0 mm 4 m/S 743 mmHg 94%
    21:00 +21°C° 0 mm 4 m/S 744 mmHg 95%
    22:00 +21°C° 0.1 mm 4 m/S 744 mmHg 95%
    23:00 +21°C° 0.1 mm 4 m/S 743 mmHg 95%

    25 September, Dienstag

    Zeit Temperatur Niederschläge Wind Luftdruck Luftfeuchtigkeit
    00:00 +21°C° 0.1 mm 4 m/S 743 mmHg 95%
    01:00 +21°C° 0.4 mm 5 m/S 743 mmHg 95%
    02:00 +21°C° 0.4 mm 5 m/S 743 mmHg 95%
    03:00 +21°C° 0.4 mm 5 m/S 743 mmHg 95%
    04:00 +21°C° 0.8 mm 5 m/S 743 mmHg 95%
    05:00 +21°C° 0.8 mm 5 m/S 743 mmHg 95%
    06:00 +21°C° 0.8 mm 5 m/S 743 mmHg 95%
    07:00 +21°C° 0.3 mm 6 m/S 743 mmHg 95%
    08:00 +21°C° 0.3 mm 6 m/S 743 mmHg 94%
    09:00 +22°C° 0.3 mm 6 m/S 742 mmHg 94%
    10:00 +22°C° 0.5 mm 6 m/S 742 mmHg 93%
    11:00 +23°C° 0.5 mm 6 m/S 742 mmHg 92%
    12:00 +23°C° 0.5 mm 6 m/S 741 mmHg 91%
    13:00 +23°C° 2.4 mm 6 m/S 741 mmHg 91%
    14:00 +23°C° 2.4 mm 6 m/S 740 mmHg 91%
    15:00 +23°C° 2.4 mm 6 m/S 740 mmHg 91%
    16:00 +23°C° 3.9 mm 5 m/S 740 mmHg 92%
    17:00 +22°C° 3.9 mm 4 m/S 740 mmHg 94%
    18:00 +21°C° 3.9 mm 3 m/S 740 mmHg 96%
    19:00 +20°C° 0.7 mm 3 m/S 741 mmHg 95%
    20:00 +20°C° 0.7 mm 4 m/S 741 mmHg 95%
    21:00 +19°C° 0.7 mm 5 m/S 741 mmHg 94%
    22:00 +17°C° 0.1 mm 5 m/S 741 mmHg 92%
    23:00 +15°C° 0.1 mm 5 m/S 741 mmHg 91%
    Mehr zeigen